Time,TemperatureF,DewpointF,PressureIn,WindDirection,WindDirectionDegrees,WindSpeedMPH,WindSpeedGustMPH,Humidity,HourlyPrecipIn,Conditions,Clouds,dailyrainin,SolarRadiationWatts/m^2,SoftwareType,DateUTC
2013-10-16 00:00:00,57.6,52.8,30.06,NNE,22,0.0,0.0,84,0.00,,CLR,0.00,0.00,VWS V14.01,2013-10-16 04:00:00,
2013-10-16 00:01:00,57.6,52.8,30.06,NNE,22,0.0,0.0,84,0.00,,CLR,0.00,,VWS V14.01,2013-10-16 04:01:00,
2013-10-16 00:02:00,57.6,52.8,30.06,NNE,22,0.0,0.0,84,0.00,,CLR,0.00,,VWS V14.01,2013-10-16 04:02:00,
2013-10-16 00:03:00,57.6,52.8,30.06,NNE,22,0.0,0.0,84,0.00,,CLR,0.00,,VWS V14.01,2013-10-16 04:03:00,
2013-10-16 00:05:00,57.6,52.8,30.07,NNE,22,0.0,0.0,84,0.00,,CLR,0.00,,VWS V14.01,2013-10-16 04:05:00,
2013-10-16 00:10:00,57.7,53.2,30.07,NNE,22,0.0,0.0,85,0.00,,CLR,0.00,,VWS V14.01,2013-10-16 04:10:00,
2013-10-16 00:15:00,57.7,53.2,30.06,NNE,22,0.0,0.0,85,0.00,,CLR,0.00,,VWS V14.01,2013-10-16 04:15:00,
2013-10-16 00:20:00,57.8,53.3,30.06,NNE,22,0.0,0.0,85,0.00,,CLR,0.00,,VWS V14.01,2013-10-16 04:20:00,
2013-10-16 00:25:00,58.2,53.7,30.06,NNE,15,1.0,0.0,85,0.00,,CLR,0.00,,VWS V14.01,2013-10-16 04:25:00,
2013-10-16 00:30:00,58.5,54.0,30.06,NNE,15,1.0,0.0,85,0.00,,CLR,0.00,0.00,VWS V14.01,2013-10-16 04:30:00,
2013-10-16 00:31:00,58.5,54.0,30.06,NNE,15,1.0,0.0,85,0.00,,CLR,0.00,,VWS V14.01,2013-10-16 04:31:00,
2013-10-16 00:35:00,58.8,54.0,30.06,NNE,15,0.0,0.0,84,0.00,,CLR,0.00,0.00,VWS V14.01,2013-10-16 04:35:00,
2013-10-16 00:36:00,58.8,54.0,30.06,NNE,15,0.0,0.0,84,0.00,,OVC031,0.00,,VWS V14.01,2013-10-16 04:36:00,
2013-10-16 00:40:00,59.0,54.2,30.07,NNE,15,0.0,0.0,84,0.00,,CLR,0.00,0.00,VWS V14.01,2013-10-16 04:40:00,
2013-10-16 00:41:00,59.0,54.2,30.07,NNE,15,0.0,0.0,84,0.00,,OVC031,0.00,,VWS V14.01,2013-10-16 04:41:00,
2013-10-16 00:45:00,59.2,54.4,30.07,NNE,15,0.0,0.0,84,0.00,,CLR,0.00,0.00,VWS V14.01,2013-10-16 04:45:00,
2013-10-16 00:46:00,59.2,54.4,30.07,NNE,15,0.0,0.0,84,0.00,,OVC031,0.00,,VWS V14.01,2013-10-16 04:46:00,
2013-10-16 00:50:00,59.3,54.5,30.07,NNE,15,0.0,0.0,84,0.00,,CLR,0.00,0.00,VWS V14.01,2013-10-16 04:50:00,
2013-10-16 00:51:00,59.3,54.5,30.07,NNE,15,0.0,0.0,84,0.00,,OVC031,0.00,,VWS V14.01,2013-10-16 04:51:00,
2013-10-16 00:55:00,59.5,54.3,30.06,NNE,16,1.0,0.0,83,0.00,,CLR,0.00,0.00,VWS V14.01,2013-10-16 04:55:00,
2013-10-16 00:56:00,59.5,54.3,30.06,NNE,16,2.0,0.0,83,0.00,,OVC031,0.00,,VWS V14.01,2013-10-16 04:56:00,
2013-10-16 01:00:00,59.7,54.5,30.06,NNE,16,1.0,0.0,83,0.00,,CLR,0.00,0.00,VWS V14.01,2013-10-16 05:00:00,
2013-10-16 01:01:00,59.7,54.5,30.06,NNE,16,1.0,0.0,83,0.00,,OVC031,0.00,,VWS V14.01,2013-10-16 05:01:00,
2013-10-16 01:05:00,59.8,54.6,30.06,NNE,17,1.0,0.0,83,0.00,,CLR,0.00,0.00,VWS V14.01,2013-10-16 05:05:00,
2013-10-16 01:06:00,59.8,54.6,30.06,NNE,17,1.0,0.0,83,0.00,,OVC031,0.00,,VWS V14.01,2013-10-16 05:06:00,
2013-10-16 01:10:00,60.0,54.5,30.06,NE,55,2.0,0.0,82,0.00,,CLR,0.00,0.00,VWS V14.01,2013-10-16 05:10:00,
2013-10-16 01:11:00,60.0,54.2,30.06,NE,54,2.0,0.0,81,0.00,,OVC031,0.00,,VWS V14.01,2013-10-16 05:11:00,
2013-10-16 01:15:00,60.1,54.3,30.05,NNE,23,2.0,0.0,81,0.00,,CLR,0.00,0.00,VWS V14.01,2013-10-16 05:15:00,
2013-10-16 01:16:00,60.1,54.3,30.05,NNE,23,1.0,0.0,81,0.00,,OVC031,0.00,,VWS V14.01,2013-10-16 05:16:00,
2013-10-16 01:20:00,60.2,54.4,30.05,NNE,23,1.0,0.0,81,0.00,,CLR,0.00,0.00,VWS V14.01,2013-10-16 05:20:00,
2013-10-16 01:21:00,60.2,54.4,30.05,NNE,23,1.0,0.0,81,0.00,,OVC031,0.00,,VWS V14.01,2013-10-16 05:21:00,
2013-10-16 01:25:00,60.1,54.3,30.05,NNE,30,2.0,0.0,81,0.00,,CLR,0.00,0.00,VWS V14.01,2013-10-16 05:25:00,
2013-10-16 01:27:00,60.0,54.2,30.05,NNE,30,1.0,0.0,81,0.00,,OVC031,0.00,,VWS V14.01,2013-10-16 05:27:00,
2013-10-16 01:30:00,59.9,54.1,30.05,NNE,30,2.0,0.0,81,0.00,,CLR,0.00,0.00,VWS V14.01,2013-10-16 05:30:00,
2013-10-16 01:32:00,59.9,54.4,30.05,NNE,32,2.0,0.0,82,0.00,,OVC031,0.00,,VWS V14.01,2013-10-16 05:32:00,
2013-10-16 01:35:00,59.8,54.6,30.05,NNE,30,1.0,0.0,83,0.00,,CLR,0.00,0.00,VWS V14.01,2013-10-16 05:35:00,
2013-10-16 01:37:00,59.8,54.6,30.05,NNE,18,2.0,0.0,83,0.00,,OVC031,0.00,,VWS V14.01,2013-10-16 05:37:00,
2013-10-16 01:40:00,59.9,54.7,30.05,North,360,1.0,0.0,83,0.00,,CLR,0.00,0.00,VWS V14.01,2013-10-16 05:40:00,
2013-10-16 01:42:00,60.0,54.8,30.05,NNW,346,1.0,0.0,83,0.00,,OVC031,0.00,,VWS V14.01,2013-10-16 05:42:00,
2013-10-16 01:45:00,60.1,54.6,30.05,NE,34,2.0,0.0,82,0.00,,CLR,0.00,0.00,VWS V14.01,2013-10-16 05:45:00,
2013-10-16 01:47:00,60.1,54.6,30.05,NNE,29,2.0,0.0,82,0.00,,OVC031,0.00,,VWS V14.01,2013-10-16 05:47:00,
2013-10-16 01:50:00,60.1,54.6,30.05,NNE,29,0.0,0.0,82,0.00,,CLR,0.00,0.00,VWS V14.01,2013-10-16 05:50:00,
2013-10-16 01:52:00,60.1,54.6,30.05,NNE,29,0.0,0.0,82,0.00,,OVC031,0.00,,VWS V14.01,2013-10-16 05:52:00,
2013-10-16 01:55:00,60.1,54.9,30.05,NNE,29,2.0,0.0,83,0.00,,CLR,0.00,0.00,VWS V14.01,2013-10-16 05:55:00,
2013-10-16 01:57:00,60.0,54.5,30.05,NNE,29,2.0,0.0,82,0.00,,OVC031,0.00,,VWS V14.01,2013-10-16 05:57:00,
2013-10-16 02:00:00,60.0,54.5,30.05,NNE,25,1.0,0.0,82,0.00,,CLR,0.00,0.00,VWS V14.01,2013-10-16 06:00:00,
2013-10-16 02:02:00,60.0,54.5,30.05,NNE,25,1.0,0.0,82,0.00,,OVC031,0.00,,VWS V14.01,2013-10-16 06:02:00,
2013-10-16 02:05:00,60.0,54.5,30.05,NNE,26,3.0,0.0,82,0.00,,CLR,0.00,0.00,VWS V14.01,2013-10-16 06:05:00,
2013-10-16 02:08:00,60.0,54.5,30.05,NNE,26,1.0,0.0,82,0.00,,OVC031,0.00,,VWS V14.01,2013-10-16 06:08:00,
2013-10-16 02:10:00,60.0,54.5,30.04,NNE,26,2.0,0.0,82,0.00,,CLR,0.00,0.00,VWS V14.01,2013-10-16 06:10:00,
2013-10-16 02:13:00,59.9,54.4,30.04,NE,34,3.0,0.0,82,0.00,,OVC031,0.00,,VWS V14.01,2013-10-16 06:13:00,
2013-10-16 02:15:00,59.9,54.4,30.04,NE,35,1.0,0.0,82,0.00,,CLR,0.00,0.00,VWS V14.01,2013-10-16 06:15:00,
2013-10-16 02:18:00,59.9,54.4,30.04,NE,35,0.0,0.0,82,0.00,,OVC031,0.00,,VWS V14.01,2013-10-16 06:18:00,
2013-10-16 02:20:00,59.7,54.2,30.03,NNE,32,1.0,0.0,82,0.00,,CLR,0.00,0.00,VWS V14.01,2013-10-16 06:20:00,
2013-10-16 02:23:00,59.6,54.1,30.03,NNE,30,1.0,0.0,82,0.00,,OVC031,0.00,,VWS V14.01,2013-10-16 06:23:00,
2013-10-16 02:25:00,59.4,54.2,30.03,NNE,30,1.0,0.0,83,0.00,,CLR,0.00,0.00,VWS V14.01,2013-10-16 06:25:00,
2013-10-16 02:28:00,59.2,54.0,30.03,NNE,12,1.0,0.0,83,0.00,,OVC031,0.00,,VWS V14.01,2013-10-16 06:28:00,
2013-10-16 02:30:00,59.1,54.3,30.03,NNE,23,2.0,0.0,84,0.00,,CLR,0.00,0.00,VWS V14.01,2013-10-16 06:30:00,
2013-10-16 02:33:00,59.1,54.3,30.03,NNE,30,2.0,0.0,84,0.00,,OVC033,0.00,,VWS V14.01,2013-10-16 06:33:00,
2013-10-16 02:35:00,59.1,54.3,30.03,NNE,29,2.0,0.0,84,0.00,,CLR,0.00,0.00,VWS V14.01,2013-10-16 06:35:00,
2013-10-16 02:38:00,59.1,54.3,30.03,NE,34,2.0,0.0,84,0.00,,OVC033,0.00,,VWS V14.01,2013-10-16 06:38:00,
2013-10-16 02:40:00,59.1,54.3,30.03,NE,34,1.0,0.0,84,0.00,,CLR,0.00,0.00,VWS V14.01,2013-10-16 06:40:00,
2013-10-16 02:43:00,59.0,54.2,30.03,NE,34,1.0,0.0,84,0.00,,OVC033,0.00,,VWS V14.01,2013-10-16 06:43:00,
2013-10-16 02:45:00,59.1,54.3,30.03,NE,34,1.0,0.0,84,0.00,,CLR,0.00,0.00,VWS V14.01,2013-10-16 06:45:00,
2013-10-16 02:49:00,59.1,54.3,30.03,NE,34,2.0,0.0,84,0.00,,OVC033,0.00,,VWS V14.01,2013-10-16 06:49:00,
2013-10-16 02:50:00,59.1,54.3,30.03,NE,34,1.0,0.0,84,0.00,,CLR,0.00,0.00,VWS V14.01,2013-10-16 06:50:00,
2013-10-16 02:54:00,59.1,54.3,30.03,NE,34,1.0,0.0,84,0.00,,OVC033,0.00,,VWS V14.01,2013-10-16 06:54:00,
2013-10-16 02:55:00,59.0,54.2,30.03,NE,34,1.0,0.0,84,0.00,,CLR,0.00,0.00,VWS V14.01,2013-10-16 06:55:00,
2013-10-16 02:59:00,58.9,54.1,30.03,NE,34,1.0,0.0,84,0.00,,OVC033,0.00,,VWS V14.01,2013-10-16 06:59:00,
2013-10-16 03:00:00,58.9,54.1,30.03,NE,34,1.0,0.0,84,0.00,,CLR,0.00,0.00,VWS V14.01,2013-10-16 07:00:00,
2013-10-16 03:04:00,58.8,54.0,30.03,NNE,33,1.0,0.0,84,0.00,,OVC033,0.00,,VWS V14.01,2013-10-16 07:04:00,
2013-10-16 03:05:00,58.7,53.9,30.03,NNE,33,2.0,0.0,84,0.00,,CLR,0.00,0.00,VWS V14.01,2013-10-16 07:05:00,
2013-10-16 03:09:00,58.5,53.7,30.03,NNE,33,1.0,0.0,84,0.00,,OVC033,0.00,,VWS V14.01,2013-10-16 07:09:00,
2013-10-16 03:10:00,58.4,53.6,30.03,NNE,33,0.0,0.0,84,0.00,,CLR,0.00,0.00,VWS V14.01,2013-10-16 07:10:00,
2013-10-16 03:14:00,58.2,53.7,30.03,NNE,32,2.0,0.0,85,0.00,,OVC033,0.00,,VWS V14.01,2013-10-16 07:14:00,
2013-10-16 03:15:00,58.2,53.7,30.03,NNE,28,3.0,0.0,85,0.00,,CLR,0.00,0.00,VWS V14.01,2013-10-16 07:15:00,
2013-10-16 03:19:00,58.2,53.7,30.02,NNE,30,2.0,0.0,85,0.00,,OVC033,0.00,,VWS V14.01,2013-10-16 07:19:00,
2013-10-16 03:20:00,58.2,53.7,30.03,NNE,28,2.0,0.0,85,0.00,,CLR,0.00,0.00,VWS V14.01,2013-10-16 07:20:00,
2013-10-16 03:24:00,58.2,53.7,30.02,NNE,24,2.0,0.0,85,0.00,,OVC033,0.00,,VWS V14.01,2013-10-16 07:24:00,
2013-10-16 03:25:00,58.2,53.7,30.02,NNE,31,2.0,0.0,85,0.00,,CLR,0.00,0.00,VWS V14.01,2013-10-16 07:25:00,
2013-10-16 03:29:00,58.0,53.5,30.02,NE,38,3.0,0.0,85,0.00,,OVC033,0.00,,VWS V14.01,2013-10-16 07:29:00,
2013-10-16 03:30:00,58.0,53.5,30.02,NE,37,2.0,0.0,85,0.00,,CLR,0.00,0.00,VWS V14.01,2013-10-16 07:30:00,
2013-10-16 03:35:00,58.0,53.8,30.02,North,9,2.0,0.0,86,0.00,,FEW033,0.00,,VWS V14.01,2013-10-16 07:35:00,
2013-10-16 03:40:00,58.1,53.9,30.02,NNE,20,2.0,0.0,86,0.00,,FEW033,0.00,,VWS V14.01,2013-10-16 07:40:00,
2013-10-16 03:45:00,58.2,54.0,30.02,NNE,25,2.0,0.0,86,0.00,,FEW033,0.00,,VWS V14.01,2013-10-16 07:45:00,
2013-10-16 03:50:00,58.3,53.8,30.01,NNE,26,2.0,0.0,85,0.00,,FEW033,0.00,,VWS V14.01,2013-10-16 07:50:00,
2013-10-16 03:55:00,58.2,53.7,30.01,NNE,26,1.0,0.0,85,0.00,,FEW033,0.00,,VWS V14.01,2013-10-16 07:55:00,
2013-10-16 04:00:00,57.9,53.4,30.01,NNE,26,0.0,0.0,85,0.00,,FEW033,0.00,,VWS V14.01,2013-10-16 08:00:00,
2013-10-16 04:05:00,57.5,53.3,30.01,NNE,26,1.0,0.0,86,0.00,,FEW033,0.00,,VWS V14.01,2013-10-16 08:05:00,
2013-10-16 04:10:00,57.1,53.3,30.01,NNE,26,0.0,0.0,87,0.00,,FEW033,0.00,,VWS V14.01,2013-10-16 08:10:00,
2013-10-16 04:15:00,56.8,53.3,30.02,NNE,21,1.0,0.0,88,0.00,,FEW033,0.00,,VWS V14.01,2013-10-16 08:15:00,
2013-10-16 04:20:00,56.5,53.0,30.02,NNE,25,3.0,0.0,88,0.00,,FEW033,0.00,,VWS V14.01,2013-10-16 08:20:00,
2013-10-16 04:25:00,56.8,53.3,30.02,NNE,22,1.0,0.0,88,0.00,,CLR,0.00,0.00,VWS V14.01,2013-10-16 08:25:00,
2013-10-16 04:26:00,56.8,53.3,30.02,NNE,22,1.0,0.0,88,0.00,,FEW033,0.00,,VWS V14.01,2013-10-16 08:26:00,
2013-10-16 04:30:00,56.8,53.3,30.02,NNE,19,1.0,0.0,88,0.00,,CLR,0.00,0.00,VWS V14.01,2013-10-16 08:30:00,
2013-10-16 04:31:00,56.8,53.3,30.02,NNE,19,1.0,0.0,88,0.00,,FEW033,0.00,,VWS V14.01,2013-10-16 08:31:00,
2013-10-16 04:35:00,56.6,53.1,30.02,NNE,28,2.0,0.0,88,0.00,,CLR,0.00,0.00,VWS V14.01,2013-10-16 08:35:00,
2013-10-16 04:36:00,56.6,53.1,30.02,NNE,28,2.0,0.0,88,0.00,,CLR,0.00,,VWS V14.01,2013-10-16 08:36:00,
2013-10-16 04:40:00,56.4,52.9,30.02,NNE,25,2.0,0.0,88,0.00,,CLR,0.00,0.00,VWS V14.01,2013-10-16 08:40:00,
2013-10-16 04:41:00,56.4,52.9,30.02,NNE,25,2.0,0.0,88,0.00,,CLR,0.00,,VWS V14.01,2013-10-16 08:41:00,
2013-10-16 04:45:00,56.5,53.3,30.02,NNE,22,2.0,0.0,89,0.00,,CLR,0.00,0.00,VWS V14.01,2013-10-16 08:45:00,
2013-10-16 04:46:00,56.5,53.3,30.02,NNE,22,2.0,0.0,89,0.00,,CLR,0.00,,VWS V14.01,2013-10-16 08:46:00,
2013-10-16 04:50:00,56.6,53.4,30.01,NNE,26,1.0,0.0,89,0.00,,CLR,0.00,0.00,VWS V14.01,2013-10-16 08:50:00,
2013-10-16 04:51:00,56.6,53.4,30.01,NNE,26,2.0,0.0,89,0.00,,CLR,0.00,,VWS V14.01,2013-10-16 08:51:00,
2013-10-16 04:55:00,56.7,53.2,30.01,NE,40,3.0,0.0,88,0.00,,CLR,0.00,0.00,VWS V14.01,2013-10-16 08:55:00,
2013-10-16 04:56:00,56.7,53.2,30.01,NE,40,4.0,0.0,88,0.00,,CLR,0.00,,VWS V14.01,2013-10-16 08:56:00,
2013-10-16 05:00:00,56.6,53.4,30.01,NNE,33,1.0,0.0,89,0.00,,CLR,0.00,0.00,VWS V14.01,2013-10-16 09:00:00,
2013-10-16 05:01:00,56.7,53.5,30.01,NNE,32,3.0,0.0,89,0.00,,CLR,0.00,,VWS V14.01,2013-10-16 09:01:00,
2013-10-16 05:05:00,56.7,53.5,30.02,NNE,31,0.0,0.0,89,0.00,,CLR,0.00,0.00,VWS V14.01,2013-10-16 09:05:00,
2013-10-16 05:06:00,56.7,53.2,30.02,NNE,31,1.0,0.0,88,0.00,,CLR,0.00,,VWS V14.01,2013-10-16 09:06:00,
2013-10-16 05:10:00,56.6,53.4,30.02,NNE,24,1.0,0.0,89,0.00,,CLR,0.00,0.00,VWS V14.01,2013-10-16 09:10:00,
2013-10-16 05:11:00,56.6,53.4,30.02,NNE,22,0.0,0.0,89,0.00,,CLR,0.00,,VWS V14.01,2013-10-16 09:11:00,
2013-10-16 05:15:00,56.5,53.0,30.02,NNE,22,1.0,0.0,88,0.00,,CLR,0.00,0.00,VWS V14.01,2013-10-16 09:15:00,
2013-10-16 05:16:00,56.4,53.2,30.02,NNE,22,0.0,0.0,89,0.00,,CLR,0.00,,VWS V14.01,2013-10-16 09:16:00,
2013-10-16 05:20:00,56.2,53.0,30.02,NNE,22,0.0,0.0,89,0.00,,CLR,0.00,0.00,VWS V14.01,2013-10-16 09:20:00,
2013-10-16 05:21:00,56.2,53.0,30.02,NNE,22,0.0,0.0,89,0.00,,CLR,0.00,,VWS V14.01,2013-10-16 09:21:00,
2013-10-16 05:25:00,55.9,52.7,30.02,NNE,22,1.0,0.0,89,0.00,,CLR,0.00,0.00,VWS V14.01,2013-10-16 09:25:00,
2013-10-16 05:27:00,55.9,52.7,30.02,NNE,26,3.0,0.0,89,0.00,,CLR,0.00,,VWS V14.01,2013-10-16 09:27:00,
2013-10-16 05:30:00,55.7,52.8,30.02,NNE,26,1.0,0.0,90,0.00,,CLR,0.00,0.00,VWS V14.01,2013-10-16 09:30:00,
2013-10-16 05:32:00,55.7,52.8,30.02,NNE,32,2.0,0.0,90,0.00,,CLR,0.00,,VWS V14.01,2013-10-16 09:32:00,
2013-10-16 05:35:00,55.7,52.8,30.02,NE,34,1.0,0.0,90,0.00,,CLR,0.00,0.00,VWS V14.01,2013-10-16 09:35:00,
2013-10-16 05:37:00,55.6,52.7,30.02,NE,34,2.0,0.0,90,0.00,,CLR,0.00,,VWS V14.01,2013-10-16 09:37:00,
2013-10-16 05:40:00,55.4,52.5,30.02,NE,34,1.0,0.0,90,0.00,,CLR,0.00,0.00,VWS V14.01,2013-10-16 09:40:00,
2013-10-16 05:42:00,55.3,52.4,30.02,NE,34,1.0,0.0,90,0.00,,CLR,0.00,,VWS V14.01,2013-10-16 09:42:00,
2013-10-16 05:45:00,55.2,52.3,30.02,NE,34,0.0,0.0,90,0.00,,CLR,0.00,0.00,VWS V14.01,2013-10-16 09:45:00,
2013-10-16 05:47:00,55.2,52.6,30.02,NE,34,0.0,0.0,91,0.00,,CLR,0.00,,VWS V14.01,2013-10-16 09:47:00,
2013-10-16 05:50:00,55.0,52.4,30.02,NNE,27,1.0,0.0,91,0.00,,CLR,0.00,0.00,VWS V14.01,2013-10-16 09:50:00,
2013-10-16 05:52:00,55.0,52.4,30.03,NNE,27,1.0,0.0,91,0.00,,CLR,0.00,,VWS V14.01,2013-10-16 09:52:00,
2013-10-16 05:55:00,55.1,52.5,30.03,NNE,26,1.0,0.0,91,0.00,,CLR,0.00,0.00,VWS V14.01,2013-10-16 09:55:00,
2013-10-16 05:57:00,55.1,52.5,30.03,NNE,26,2.0,0.0,91,0.00,,CLR,0.00,,VWS V14.01,2013-10-16 09:57:00,
2013-10-16 06:00:00,55.1,52.5,30.03,NNE,25,1.0,0.0,91,0.00,,CLR,0.00,0.00,VWS V14.01,2013-10-16 10:00:00,
2013-10-16 06:02:00,55.0,52.4,30.03,NNE,25,0.0,0.0,91,0.00,,CLR,0.00,,VWS V14.01,2013-10-16 10:02:00,
2013-10-16 06:05:00,55.0,52.4,30.03,NNE,25,0.0,0.0,91,0.00,,CLR,0.00,0.00,VWS V14.01,2013-10-16 10:05:00,
2013-10-16 06:07:00,55.0,52.4,30.03,NNE,26,1.0,0.0,91,0.00,,CLR,0.00,,VWS V14.01,2013-10-16 10:07:00,
2013-10-16 06:10:00,55.0,52.4,30.03,NNE,26,0.0,0.0,91,0.00,,CLR,0.00,0.00,VWS V14.01,2013-10-16 10:10:00,
2013-10-16 06:12:00,55.0,52.4,30.03,NNE,25,0.0,0.0,91,0.00,,CLR,0.00,,VWS V14.01,2013-10-16 10:12:00,
2013-10-16 06:15:00,54.9,52.3,30.03,NNE,25,1.0,0.0,91,0.00,,CLR,0.00,0.00,VWS V14.01,2013-10-16 10:15:00,
2013-10-16 06:17:00,54.8,52.5,30.03,NNE,25,0.0,0.0,92,0.00,,CLR,0.00,,VWS V14.01,2013-10-16 10:17:00,
2013-10-16 06:20:00,54.8,52.5,30.03,NNE,25,1.0,0.0,92,0.00,,CLR,0.00,0.00,VWS V14.01,2013-10-16 10:20:00,
2013-10-16 06:22:00,54.7,52.4,30.03,NNE,25,0.0,0.0,92,0.00,,CLR,0.00,,VWS V14.01,2013-10-16 10:22:00,
2013-10-16 06:25:00,54.6,52.3,30.03,NNE,25,0.0,0.0,92,0.00,,CLR,0.00,0.00,VWS V14.01,2013-10-16 10:25:00,
2013-10-16 06:28:00,54.6,52.3,30.03,NNE,25,0.0,0.0,92,0.00,,CLR,0.00,,VWS V14.01,2013-10-16 10:28:00,
2013-10-16 06:30:00,54.5,52.2,30.03,NNE,25,1.0,0.0,92,0.00,,CLR,0.00,0.00,VWS V14.01,2013-10-16 10:30:00,
2013-10-16 06:33:00,54.4,51.8,30.03,NNE,26,1.0,0.0,91,0.00,,FEW030,0.00,,VWS V14.01,2013-10-16 10:33:00,
2013-10-16 06:35:00,54.4,52.1,30.03,NNE,26,1.0,0.0,92,0.00,,CLR,0.00,0.00,VWS V14.01,2013-10-16 10:35:00,
2013-10-16 06:38:00,54.4,52.4,30.03,NNE,26,1.0,0.0,93,0.00,,FEW030,0.00,,VWS V14.01,2013-10-16 10:38:00,
2013-10-16 06:40:00,54.3,52.0,30.03,NNE,26,1.0,0.0,92,0.00,,CLR,0.00,0.00,VWS V14.01,2013-10-16 10:40:00,
2013-10-16 06:43:00,54.3,52.0,30.02,NNE,26,0.0,0.0,92,0.00,,FEW030,0.00,,VWS V14.01,2013-10-16 10:43:00,
2013-10-16 06:45:00,54.2,52.2,30.03,NNE,26,0.0,0.0,93,0.00,,CLR,0.00,0.00,VWS V14.01,2013-10-16 10:45:00,
2013-10-16 06:48:00,54.2,52.2,30.03,NNE,26,0.0,0.0,93,0.00,,FEW030,0.00,,VWS V14.01,2013-10-16 10:48:00,
2013-10-16 06:50:00,54.1,52.1,30.03,NNE,26,0.0,0.0,93,0.00,,CLR,0.00,0.00,VWS V14.01,2013-10-16 10:50:00,
2013-10-16 06:53:00,54.1,51.8,30.03,NNE,26,0.0,0.0,92,0.00,,FEW030,0.00,,VWS V14.01,2013-10-16 10:53:00,
2013-10-16 06:55:00,53.9,51.6,30.03,NNE,26,0.0,0.0,92,0.00,,CLR,0.00,0.00,VWS V14.01,2013-10-16 10:55:00,
2013-10-16 06:58:00,53.8,51.5,30.03,NNE,26,0.0,0.0,92,0.00,,FEW030,0.00,,VWS V14.01,2013-10-16 10:58:00,
2013-10-16 07:00:00,53.7,51.7,30.03,NNE,26,0.0,0.0,93,0.00,,CLR,0.00,0.00,VWS V14.01,2013-10-16 11:00:00,
2013-10-16 07:03:00,53.7,51.7,30.03,NNE,26,0.0,0.0,93,0.00,,FEW030,0.00,,VWS V14.01,2013-10-16 11:03:00,
2013-10-16 07:05:00,53.6,51.6,30.03,NNE,26,0.0,0.0,93,0.00,,CLR,0.00,0.00,VWS V14.01,2013-10-16 11:05:00,
2013-10-16 07:09:00,53.6,51.9,30.03,NNE,26,0.0,0.0,94,0.00,,FEW030,0.00,,VWS V14.01,2013-10-16 11:09:00,
2013-10-16 07:10:00,53.6,51.9,30.03,NNE,26,0.0,0.0,94,0.00,,CLR,0.00,0.00,VWS V14.01,2013-10-16 11:10:00,
2013-10-16 07:14:00,53.7,52.0,30.03,NNE,26,0.0,0.0,94,0.00,,FEW030,0.00,,VWS V14.01,2013-10-16 11:14:00,
2013-10-16 07:15:00,53.7,52.0,30.03,NNE,25,0.0,0.0,94,0.00,,CLR,0.00,0.00,VWS V14.01,2013-10-16 11:15:00,
2013-10-16 07:19:00,53.6,51.9,30.03,NNE,25,0.0,0.0,94,0.00,,FEW030,0.00,,VWS V14.01,2013-10-16 11:19:00,
2013-10-16 07:20:00,53.6,51.9,30.03,NNE,25,0.0,0.0,94,0.00,,CLR,0.00,0.00,VWS V14.01,2013-10-16 11:20:00,
2013-10-16 07:24:00,53.5,51.8,30.03,NNE,25,0.0,0.0,94,0.00,,FEW030,0.00,,VWS V14.01,2013-10-16 11:24:00,
2013-10-16 07:25:00,53.5,51.8,30.03,NNE,25,0.0,0.0,94,0.00,,CLR,0.00,0.00,VWS V14.01,2013-10-16 11:25:00,
2013-10-16 07:29:00,53.5,51.8,30.03,NNE,25,0.0,0.0,94,0.00,,FEW030,0.00,,VWS V14.01,2013-10-16 11:29:00,
2013-10-16 07:34:00,53.6,52.2,30.04,NNE,25,0.0,0.0,95,0.00,,FEW030,0.00,,VWS V14.01,2013-10-16 11:34:00,
2013-10-16 07:35:00,53.6,51.9,30.03,NNE,25,0.0,0.0,94,0.00,,CLR,0.00,9.00,VWS V14.01,2013-10-16 11:35:00,
2013-10-16 07:39:00,53.6,52.2,30.03,NNE,25,0.0,0.0,95,0.00,,FEW030,0.00,,VWS V14.01,2013-10-16 11:39:00,
2013-10-16 07:40:00,53.7,52.3,30.03,NNE,25,0.0,0.0,95,0.00,,CLR,0.00,12.00,VWS V14.01,2013-10-16 11:40:00,
2013-10-16 07:44:00,53.8,52.4,30.03,NNE,25,0.0,0.0,95,0.00,,FEW030,0.00,,VWS V14.01,2013-10-16 11:44:00,
2013-10-16 07:45:00,53.9,52.5,30.03,NNE,25,0.0,0.0,95,0.00,,CLR,0.00,16.00,VWS V14.01,2013-10-16 11:45:00,
2013-10-16 07:49:00,54.0,52.6,30.04,NNE,25,0.0,0.0,95,0.00,,FEW030,0.00,,VWS V14.01,2013-10-16 11:49:00,
2013-10-16 07:50:00,54.0,52.6,30.03,NNE,25,0.0,0.0,95,0.00,,CLR,0.00,21.00,VWS V14.01,2013-10-16 11:50:00,
2013-10-16 07:54:00,54.3,52.9,30.04,NNE,24,0.0,0.0,95,0.00,,FEW030,0.00,,VWS V14.01,2013-10-16 11:54:00,
2013-10-16 07:55:00,54.4,53.0,30.04,NNE,24,0.0,0.0,95,0.00,,CLR,0.00,33.00,VWS V14.01,2013-10-16 11:55:00,
2013-10-16 07:59:00,54.7,53.0,30.04,NNE,24,0.0,0.0,94,0.00,,FEW030,0.00,,VWS V14.01,2013-10-16 11:59:00,
2013-10-16 08:00:00,54.8,53.1,30.04,NNE,24,0.0,0.0,94,0.00,,CLR,0.00,47.00,VWS V14.01,2013-10-16 12:00:00,
2013-10-16 08:04:00,55.0,53.0,30.04,NNE,24,0.0,0.0,93,0.00,,FEW030,0.00,,VWS V14.01,2013-10-16 12:04:00,
2013-10-16 08:05:00,55.1,53.1,30.04,NNE,24,0.0,0.0,93,0.00,,CLR,0.00,60.00,VWS V14.01,2013-10-16 12:05:00,
2013-10-16 08:09:00,55.3,53.3,30.04,NNE,24,0.0,0.0,93,0.00,,FEW030,0.00,,VWS V14.01,2013-10-16 12:09:00,
2013-10-16 08:10:00,55.4,53.4,30.04,NNE,24,0.0,0.0,93,0.00,,CLR,0.00,72.00,VWS V14.01,2013-10-16 12:10:00,
2013-10-16 08:15:00,55.9,53.9,30.04,NNE,24,0.0,0.0,93,0.00,,FEW030,0.00,,VWS V14.01,2013-10-16 12:15:00,
2013-10-16 08:20:00,56.8,54.5,30.04,NNE,24,0.0,0.0,92,0.00,,FEW030,0.00,,VWS V14.01,2013-10-16 12:20:00,
2013-10-16 08:25:00,57.7,55.1,30.05,NNE,16,0.0,0.0,91,0.00,,FEW030,0.00,,VWS V14.01,2013-10-16 12:25:00,
2013-10-16 08:29:00,58.6,55.7,30.05,NNW,348,0.0,0.0,90,0.00,,FEW030,0.00,,VWS V14.01,2013-10-16 12:29:00,
2013-10-16 08:30:00,58.8,55.9,30.05,NNW,348,0.0,0.0,90,0.00,,CLR,0.00,160.00,VWS V14.01,2013-10-16 12:30:00,
2013-10-16 08:34:00,59.3,56.1,30.05,NNE,13,2.0,0.0,89,0.00,,CLR,0.00,,VWS V14.01,2013-10-16 12:34:00,
2013-10-16 08:35:00,59.5,56.0,30.05,NNE,15,1.0,0.0,88,0.00,,CLR,0.00,183.00,VWS V14.01,2013-10-16 12:35:00,
2013-10-16 08:40:00,60.2,56.3,30.05,NNE,26,2.0,0.0,87,0.00,,CLR,0.00,,VWS V14.01,2013-10-16 12:40:00,
2013-10-16 08:45:00,60.8,56.6,30.05,North,5,2.0,0.0,86,0.00,,CLR,0.00,,VWS V14.01,2013-10-16 12:45:00,
2013-10-16 08:50:00,61.3,57.1,30.06,NE,42,2.0,0.0,86,0.00,,CLR,0.00,,VWS V14.01,2013-10-16 12:50:00,
2013-10-16 08:55:00,61.7,57.2,30.06,NW,310,0.0,0.0,85,0.00,,CLR,0.00,,VWS V14.01,2013-10-16 12:55:00,
2013-10-16 09:00:00,61.6,56.7,30.06,North,11,0.0,0.0,84,0.00,,SCT009,0.00,,VWS V14.01,2013-10-16 13:00:00,
2013-10-16 09:05:00,61.6,57.4,30.06,NNE,24,1.0,0.0,86,0.00,,SCT009,0.00,,VWS V14.01,2013-10-16 13:05:00,
2013-10-16 09:10:00,61.7,57.2,30.06,NE,45,3.0,0.0,85,0.00,,SCT009,0.00,,VWS V14.01,2013-10-16 13:10:00,
2013-10-16 09:15:00,61.6,57.0,30.06,North,9,2.0,0.0,85,0.00,,SCT009,0.00,,VWS V14.01,2013-10-16 13:15:00,
2013-10-16 09:20:00,61.8,57.2,30.06,NNE,16,2.0,0.0,85,0.00,,SCT009,0.00,,VWS V14.01,2013-10-16 13:20:00,
2013-10-16 09:25:00,62.0,57.5,30.06,NNE,27,3.0,0.0,85,0.00,,SCT009,0.00,,VWS V14.01,2013-10-16 13:25:00,
2013-10-16 09:30:00,62.2,57.3,30.06,NNE,24,2.0,0.0,84,0.00,,SCT009,0.00,,VWS V14.01,2013-10-16 13:30:00,
2013-10-16 09:35:00,62.6,57.7,30.06,North,360,3.0,0.0,84,0.00,,BKN009,0.00,,VWS V14.01,2013-10-16 13:35:00,
2013-10-16 09:40:00,62.7,57.8,30.07,NNW,348,3.0,0.0,84,0.00,,BKN009,0.00,,VWS V14.01,2013-10-16 13:40:00,
2013-10-16 09:45:00,62.8,57.9,30.07,NE,37,2.0,0.0,84,0.00,,BKN009,0.00,,VWS V14.01,2013-10-16 13:45:00,
2013-10-16 09:50:00,63.1,58.5,30.07,NNW,338,2.0,0.0,85,0.00,,BKN009,0.00,,VWS V14.01,2013-10-16 13:50:00,
2013-10-16 09:55:00,63.6,59.0,30.07,West,281,0.0,0.0,85,0.00,,BKN009,0.00,,VWS V14.01,2013-10-16 13:55:00,
2013-10-16 10:00:00,64.1,59.2,30.07,NE,53,3.0,0.0,84,0.00,,BKN009,0.00,,VWS V14.01,2013-10-16 14:00:00,
2013-10-16 10:05:00,64.3,59.4,30.07,NNE,26,2.0,0.0,84,0.00,,BKN009,0.00,,VWS V14.01,2013-10-16 14:05:00,
2013-10-16 10:10:00,64.8,59.9,30.07,NW,318,1.0,0.0,84,0.00,,BKN009,0.00,,VWS V14.01,2013-10-16 14:10:00,
2013-10-16 10:15:00,65.2,59.9,30.06,NNW,340,2.0,0.0,83,0.00,,BKN009,0.00,,VWS V14.01,2013-10-16 14:15:00,
2013-10-16 10:20:00,65.4,60.1,30.06,NE,39,5.0,0.0,83,0.00,,SCT009,0.00,,VWS V14.01,2013-10-16 14:20:00,
2013-10-16 10:25:00,65.7,60.1,30.06,NNE,33,2.0,0.0,82,0.00,,BKN009,0.00,,VWS V14.01,2013-10-16 14:25:00,
2013-10-16 10:30:00,66.1,60.1,30.05,East,88,0.0,0.0,81,0.00,,BKN009,0.00,,VWS V14.01,2013-10-16 14:30:00,
2013-10-16 10:35:00,66.8,60.4,30.05,SE,125,2.0,0.0,80,0.00,,OVC009,0.00,,VWS V14.01,2013-10-16 14:35:00,
2013-10-16 10:40:00,67.4,60.7,30.05,ENE,77,0.0,0.0,79,0.00,,OVC032,0.00,,VWS V14.01,2013-10-16 14:40:00,
2013-10-16 10:45:00,68.0,61.6,30.04,NE,38,3.0,0.0,80,0.00,,CLR,0.00,533.00,VWS V14.01,2013-10-16 14:45:00,
2013-10-16 10:46:00,68.0,61.2,30.04,NE,45,3.0,0.0,79,0.00,,OVC032,0.00,,VWS V14.01,2013-10-16 14:46:00,
2013-10-16 10:50:00,68.0,60.5,30.04,NE,53,4.0,0.0,77,0.00,,CLR,0.00,533.00,VWS V14.01,2013-10-16 14:50:00,
2013-10-16 10:51:00,68.0,60.5,30.04,NE,55,4.0,0.0,77,0.00,,OVC032,0.00,,VWS V14.01,2013-10-16 14:51:00,
2013-10-16 10:55:00,68.1,60.6,30.04,ESE,105,2.0,0.0,77,0.00,,CLR,0.00,506.00,VWS V14.01,2013-10-16 14:55:00,
2013-10-16 10:56:00,68.1,60.6,30.04,ESE,105,2.0,0.0,77,0.00,,OVC032,0.00,,VWS V14.01,2013-10-16 14:56:00,
2013-10-16 11:00:00,68.5,60.7,30.04,SSE,161,1.0,0.0,76,0.00,,CLR,0.00,659.00,VWS V14.01,2013-10-16 15:00:00,
2013-10-16 11:01:00,68.5,60.6,30.04,SSE,155,1.0,0.0,76,0.00,,OVC009,0.00,,VWS V14.01,2013-10-16 15:01:00,
2013-10-16 11:05:00,68.5,61.0,30.04,NE,41,2.0,0.0,77,0.00,,CLR,0.00,241.00,VWS V14.01,2013-10-16 15:05:00,
2013-10-16 11:06:00,68.5,61.0,30.04,NE,41,2.0,0.0,77,0.00,,OVC032,0.00,,VWS V14.01,2013-10-16 15:06:00,
2013-10-16 11:10:00,68.7,60.5,30.04,East,82,3.0,0.0,75,0.00,,CLR,0.00,635.00,VWS V14.01,2013-10-16 15:10:00,
2013-10-16 11:11:00,68.7,60.5,30.04,East,93,3.0,0.0,75,0.00,,OVC032,0.00,,VWS V14.01,2013-10-16 15:11:00,
2013-10-16 11:15:00,68.6,60.4,30.04,ENE,67,4.0,0.0,75,0.00,,CLR,0.00,251.00,VWS V14.01,2013-10-16 15:15:00,
2013-10-16 11:16:00,68.5,60.3,30.04,ENE,68,3.0,0.0,75,0.00,,OVC032,0.00,,VWS V14.01,2013-10-16 15:16:00,
2013-10-16 11:20:00,68.3,60.1,30.04,East,94,1.0,0.0,75,0.00,,CLR,0.00,255.00,VWS V14.01,2013-10-16 15:20:00,
2013-10-16 11:21:00,68.3,60.1,30.04,East,94,1.0,0.0,75,0.00,,OVC009,0.00,,VWS V14.01,2013-10-16 15:21:00,
2013-10-16 11:25:00,68.4,60.2,30.04,ENE,77,2.0,0.0,75,0.00,,CLR,0.00,246.00,VWS V14.01,2013-10-16 15:25:00,
2013-10-16 11:26:00,68.4,59.4,30.05,ENE,77,2.0,0.0,73,0.00,,OVC032,0.00,,VWS V14.01,2013-10-16 15:26:00,
2013-10-16 11:30:00,68.4,59.4,30.04,ESE,109,1.0,0.0,73,0.00,,CLR,0.00,278.00,VWS V14.01,2013-10-16 15:30:00,
2013-10-16 11:31:00,68.4,59.8,30.05,SSE,150,2.0,0.0,74,0.00,,BKN013,0.00,,VWS V14.01,2013-10-16 15:31:00,
2013-10-16 11:35:00,68.7,60.1,30.04,WSW,241,3.0,0.0,74,0.00,,CLR,0.00,306.00,VWS V14.01,2013-10-16 15:35:00,
2013-10-16 11:36:00,68.8,60.2,30.04,WSW,240,3.0,0.0,74,0.00,,BKN015,0.00,,VWS V14.01,2013-10-16 15:36:00,
2013-10-16 11:40:00,69.4,59.6,30.05,ENE,69,3.0,0.0,71,0.00,,CLR,0.00,659.00,VWS V14.01,2013-10-16 15:40:00,
2013-10-16 11:41:00,69.5,59.7,30.05,North,5,3.0,0.0,71,0.00,,BKN015,0.00,,VWS V14.01,2013-10-16 15:41:00,
2013-10-16 11:45:00,70.5,60.7,30.04,NE,37,3.0,0.0,71,0.00,,CLR,0.00,772.00,VWS V14.01,2013-10-16 15:45:00,
2013-10-16 11:46:00,70.6,60.8,30.05,ENE,60,5.0,0.0,71,0.00,,BKN015,0.00,,VWS V14.01,2013-10-16 15:46:00,
2013-10-16 11:50:00,70.5,59.8,30.05,North,9,1.0,0.0,69,0.00,,CLR,0.00,290.00,VWS V14.01,2013-10-16 15:50:00,
2013-10-16 11:51:00,70.4,59.8,30.05,North,9,1.0,0.0,69,0.00,,BKN015,0.00,,VWS V14.01,2013-10-16 15:51:00,
2013-10-16 11:55:00,69.9,59.3,30.04,NE,43,4.0,0.0,69,0.00,,CLR,0.00,207.00,VWS V14.01,2013-10-16 15:55:00,
2013-10-16 11:56:00,69.7,59.1,30.04,North,5,2.0,0.0,69,0.00,,BKN013,0.00,,VWS V14.01,2013-10-16 15:56:00,
2013-10-16 12:00:00,69.5,58.5,30.04,ENE,67,2.0,0.0,68,0.00,,CLR,0.00,250.00,VWS V14.01,2013-10-16 16:00:00,
2013-10-16 12:01:00,69.5,58.5,30.04,ENE,61,0.0,0.0,68,0.00,,BKN015,0.00,,VWS V14.01,2013-10-16 16:01:00,
2013-10-16 12:05:00,69.5,58.5,30.04,NNW,338,1.0,0.0,68,0.00,,CLR,0.00,311.00,VWS V14.01,2013-10-16 16:05:00,
2013-10-16 12:06:00,69.6,59.0,30.04,NNW,338,0.0,0.0,69,0.00,,BKN015,0.00,,VWS V14.01,2013-10-16 16:06:00,
2013-10-16 12:10:00,69.9,58.9,30.04,ENE,72,0.0,0.0,68,0.00,,CLR,0.00,392.00,VWS V14.01,2013-10-16 16:10:00,
2013-10-16 12:12:00,69.9,58.9,30.04,WNW,298,1.0,0.0,68,0.00,,BKN015,0.00,,VWS V14.01,2013-10-16 16:12:00,
2013-10-16 12:15:00,70.4,59.8,30.04,WSW,253,4.0,0.0,69,0.00,,CLR,0.00,431.00,VWS V14.01,2013-10-16 16:15:00,
2013-10-16 12:17:00,70.4,59.8,30.04,West,264,4.0,0.0,69,0.00,,BKN013,0.00,,VWS V14.01,2013-10-16 16:17:00,
2013-10-16 12:20:00,70.4,60.2,30.04,North,349,2.0,0.0,70,0.00,,CLR,0.00,443.00,VWS V14.01,2013-10-16 16:20:00,
2013-10-16 12:22:00,70.6,61.1,30.04,NNE,21,3.0,0.0,72,0.00,,BKN015,0.00,,VWS V14.01,2013-10-16 16:22:00,
2013-10-16 12:25:00,70.8,59.7,30.04,West,277,4.0,0.0,68,0.00,,CLR,0.00,378.00,VWS V14.01,2013-10-16 16:25:00,
2013-10-16 12:27:00,70.8,59.3,30.04,NW,305,2.0,0.0,67,0.00,,BKN015,0.00,,VWS V14.01,2013-10-16 16:27:00,
2013-10-16 12:30:00,70.6,59.1,30.03,NNE,13,2.0,0.0,67,0.00,,CLR,0.00,334.00,VWS V14.01,2013-10-16 16:30:00,
2013-10-16 12:32:00,70.6,59.1,30.03,NNE,25,4.0,0.0,67,0.00,,SCT031,0.00,,VWS V14.01,2013-10-16 16:32:00,
2013-10-16 12:35:00,70.7,60.0,30.03,WNW,291,1.0,0.0,69,0.00,,CLR,0.00,926.00,VWS V14.01,2013-10-16 16:35:00,
2013-10-16 12:37:00,71.0,59.9,30.03,NNW,347,1.0,0.0,68,0.00,,SCT031,0.00,,VWS V14.01,2013-10-16 16:37:00,
2013-10-16 12:40:00,71.7,60.2,30.03,NW,304,3.0,0.0,67,0.00,,CLR,0.00,1090.00,VWS V14.01,2013-10-16 16:40:00,
2013-10-16 12:42:00,71.8,59.4,30.03,WNW,299,3.0,0.0,65,0.00,,SCT031,0.00,,VWS V14.01,2013-10-16 16:42:00,
2013-10-16 12:45:00,71.9,59.1,30.03,NNW,332,4.0,0.0,64,0.00,,CLR,0.00,418.00,VWS V14.01,2013-10-16 16:45:00,
2013-10-16 12:47:00,71.7,58.5,30.03,NW,325,1.0,0.0,63,0.00,,SCT031,0.00,,VWS V14.01,2013-10-16 16:47:00,
2013-10-16 12:50:00,71.5,58.7,30.03,NNE,19,3.0,0.0,64,0.00,,CLR,0.00,374.00,VWS V14.01,2013-10-16 16:50:00,
2013-10-16 12:52:00,71.5,59.1,30.03,NNE,15,1.0,0.0,65,0.00,,BKN027,0.00,,VWS V14.01,2013-10-16 16:52:00,
2013-10-16 12:55:00,71.5,59.1,30.03,North,360,3.0,0.0,65,0.00,,CLR,0.00,279.00,VWS V14.01,2013-10-16 16:55:00,
2013-10-16 12:57:00,71.5,58.7,30.03,North,9,2.0,0.0,64,0.00,,SCT031,0.00,,VWS V14.01,2013-10-16 16:57:00,
2013-10-16 13:00:00,71.4,58.6,30.03,West,279,2.0,0.0,64,0.00,,CLR,0.00,218.00,VWS V14.01,2013-10-16 17:00:00,
2013-10-16 13:02:00,71.3,59.4,30.03,North,360,2.0,0.0,66,0.00,,BKN027,0.00,,VWS V14.01,2013-10-16 17:02:00,
2013-10-16 13:05:00,71.1,59.6,30.03,West,280,1.0,0.0,67,0.00,,CLR,0.00,207.00,VWS V14.01,2013-10-16 17:05:00,
2013-10-16 13:07:00,71.1,59.6,30.03,WNW,294,1.0,0.0,67,0.00,,BKN027,0.00,,VWS V14.01,2013-10-16 17:07:00,
2013-10-16 13:10:00,71.0,59.5,30.02,West,269,1.0,0.0,67,0.00,,CLR,0.00,214.00,VWS V14.01,2013-10-16 17:10:00,
2013-10-16 13:12:00,70.9,59.4,30.02,WSW,254,2.0,0.0,67,0.00,,BKN027,0.00,,VWS V14.01,2013-10-16 17:12:00,
2013-10-16 13:15:00,70.8,59.3,30.02,NNW,336,2.0,0.0,67,0.00,,CLR,0.00,264.00,VWS V14.01,2013-10-16 17:15:00,
2013-10-16 13:17:00,70.8,58.9,30.02,NNW,336,1.0,0.0,66,0.00,,SCT031,0.00,,VWS V14.01,2013-10-16 17:17:00,
2013-10-16 13:20:00,70.9,59.0,30.01,NE,38,2.0,0.0,66,0.00,,CLR,0.00,373.00,VWS V14.01,2013-10-16 17:20:00,
2013-10-16 13:22:00,71.0,58.7,30.01,West,271,2.0,0.0,65,0.00,,BKN027,0.00,,VWS V14.01,2013-10-16 17:22:00,
2013-10-16 13:25:00,71.4,59.0,30.01,NNW,345,2.0,0.0,65,0.00,,CLR,0.00,403.00,VWS V14.01,2013-10-16 17:25:00,
2013-10-16 13:27:00,71.7,58.9,30.01,SSW,207,0.0,0.0,64,0.00,,BKN027,0.00,,VWS V14.01,2013-10-16 17:27:00,
2013-10-16 13:30:00,72.3,59.5,30.01,West,273,4.0,0.0,64,0.00,,CLR,0.00,403.00,VWS V14.01,2013-10-16 17:30:00,
2013-10-16 13:32:00,72.4,59.1,30.01,WSW,244,1.0,0.0,63,0.00,,BKN036,0.00,,VWS V14.01,2013-10-16 17:32:00,
2013-10-16 13:35:00,72.7,59.4,30.00,SSE,148,2.0,0.0,63,0.00,,CLR,0.00,967.00,VWS V14.01,2013-10-16 17:35:00,
2013-10-16 13:37:00,72.9,59.6,30.00,South,182,3.0,0.0,63,0.00,,BKN036,0.00,,VWS V14.01,2013-10-16 17:37:00,
2013-10-16 13:40:00,73.1,58.9,30.00,ESE,117,1.0,0.0,61,0.00,,CLR,0.00,860.00,VWS V14.01,2013-10-16 17:40:00,
2013-10-16 13:43:00,73.2,59.9,30.00,SW,216,3.0,0.0,63,0.00,,BKN036,0.00,,VWS V14.01,2013-10-16 17:43:00,
2013-10-16 13:45:00,73.2,59.4,29.99,South,170,4.0,0.0,62,0.00,,CLR,0.00,891.00,VWS V14.01,2013-10-16 17:45:00,
2013-10-16 13:48:00,73.0,59.2,29.99,SW,215,6.0,0.0,62,0.00,,BKN036,0.00,,VWS V14.01,2013-10-16 17:48:00,
2013-10-16 13:50:00,73.0,60.5,29.99,NW,309,1.0,0.0,65,0.00,,CLR,0.00,937.00,VWS V14.01,2013-10-16 17:50:00,
2013-10-16 13:53:00,73.3,59.5,29.99,North,9,3.0,0.0,62,0.00,,BKN036,0.00,,VWS V14.01,2013-10-16 17:53:00,
2013-10-16 13:55:00,73.8,60.4,29.99,North,5,4.0,0.0,63,0.00,,CLR,0.00,889.00,VWS V14.01,2013-10-16 17:55:00,
2013-10-16 13:58:00,74.1,59.8,29.99,NNE,12,3.0,0.0,61,0.00,,BKN036,0.00,,VWS V14.01,2013-10-16 17:58:00,
2013-10-16 14:00:00,74.4,59.6,29.99,North,360,3.0,0.0,60,0.00,,CLR,0.00,877.00,VWS V14.01,2013-10-16 18:00:00,
2013-10-16 14:03:00,74.4,59.6,29.99,North,355,3.0,0.0,60,0.00,,BKN036,0.00,,VWS V14.01,2013-10-16 18:03:00,
2013-10-16 14:05:00,74.4,59.6,29.98,NE,49,3.0,0.0,60,0.00,,CLR,0.00,870.00,VWS V14.01,2013-10-16 18:05:00,
2013-10-16 14:08:00,74.2,59.0,29.98,NE,34,1.0,0.0,59,0.00,,BKN036,0.00,,VWS V14.01,2013-10-16 18:08:00,
2013-10-16 14:10:00,73.7,59.0,29.98,NW,326,2.0,0.0,60,0.00,,CLR,0.00,225.00,VWS V14.01,2013-10-16 18:10:00,
2013-10-16 14:13:00,73.5,58.8,29.98,NNW,342,1.0,0.0,60,0.00,,BKN036,0.00,,VWS V14.01,2013-10-16 18:13:00,
2013-10-16 14:15:00,73.2,59.4,29.98,NW,311,2.0,0.0,62,0.00,,CLR,0.00,253.00,VWS V14.01,2013-10-16 18:15:00,
2013-10-16 14:18:00,73.2,59.4,29.97,West,267,1.0,0.0,62,0.00,,BKN036,0.00,,VWS V14.01,2013-10-16 18:18:00,
2013-10-16 14:20:00,73.4,59.6,29.97,NNW,336,1.0,0.0,62,0.00,,CLR,0.00,775.00,VWS V14.01,2013-10-16 18:20:00,
2013-10-16 14:23:00,73.5,59.2,29.97,West,281,2.0,0.0,61,0.00,,BKN036,0.00,,VWS V14.01,2013-10-16 18:23:00,
2013-10-16 14:25:00,73.6,59.3,29.97,WNW,297,1.0,0.0,61,0.00,,CLR,0.00,207.00,VWS V14.01,2013-10-16 18:25:00,
2013-10-16 14:28:00,73.7,59.0,29.97,WSW,254,2.0,0.0,60,0.00,,BKN036,0.00,,VWS V14.01,2013-10-16 18:28:00,
2013-10-16 14:29:00,73.6,59.3,29.97,NW,304,3.0,0.0,61,0.00,,BKN036,0.00,,VWS V14.01,2013-10-16 18:29:00,
2013-10-16 14:30:00,73.7,59.0,29.97,West,261,3.0,0.0,60,0.00,,CLR,0.00,752.00,VWS V14.01,2013-10-16 18:30:00,
2013-10-16 14:34:00,73.9,58.7,29.97,WSW,248,4.0,0.0,59,0.00,,CLR,0.00,,VWS V14.01,2013-10-16 18:34:00,
2013-10-16 14:35:00,73.7,59.0,29.97,West,269,3.0,0.0,60,0.00,,CLR,0.00,288.00,VWS V14.01,2013-10-16 18:35:00,
2013-10-16 14:39:00,73.5,58.8,29.97,SSW,209,0.0,0.0,60,0.00,,CLR,0.00,,VWS V14.01,2013-10-16 18:39:00,
2013-10-16 14:40:00,73.4,59.2,29.97,SSW,207,1.0,0.0,61,0.00,,CLR,0.00,165.00,VWS V14.01,2013-10-16 18:40:00,
2013-10-16 14:44:00,73.5,58.8,29.97,WSW,242,3.0,0.0,60,0.00,,CLR,0.00,,VWS V14.01,2013-10-16 18:44:00,
2013-10-16 14:45:00,73.7,59.4,29.97,SW,232,1.0,0.0,61,0.00,,CLR,0.00,715.00,VWS V14.01,2013-10-16 18:45:00,
2013-10-16 14:49:00,73.9,59.2,29.97,WSW,257,2.0,0.0,60,0.00,,CLR,0.00,,VWS V14.01,2013-10-16 18:49:00,
2013-10-16 14:50:00,73.9,59.2,29.97,West,260,3.0,0.0,60,0.00,,CLR,0.00,731.00,VWS V14.01,2013-10-16 18:50:00,
2013-10-16 14:54:00,73.7,59.0,29.97,WSW,239,4.0,0.0,60,0.00,,CLR,0.00,,VWS V14.01,2013-10-16 18:54:00,
2013-10-16 14:55:00,73.7,59.4,29.97,WSW,240,2.0,0.0,61,0.00,,CLR,0.00,248.00,VWS V14.01,2013-10-16 18:55:00,
2013-10-16 14:59:00,73.8,59.5,29.97,WSW,251,3.0,0.0,61,0.00,,CLR,0.00,,VWS V14.01,2013-10-16 18:59:00,
2013-10-16 15:00:00,73.8,59.1,29.97,WSW,252,3.0,0.0,60,0.00,,CLR,0.00,719.00,VWS V14.01,2013-10-16 19:00:00,
2013-10-16 15:04:00,73.9,59.2,29.97,SSW,208,2.0,0.0,60,0.00,,CLR,0.00,,VWS V14.01,2013-10-16 19:04:00,
2013-10-16 15:05:00,73.8,59.1,29.97,SSW,213,2.0,0.0,60,0.00,,CLR,0.00,220.00,VWS V14.01,2013-10-16 19:05:00,
2013-10-16 15:09:00,73.8,58.6,29.96,SSW,209,0.0,0.0,59,0.00,,CLR,0.00,,VWS V14.01,2013-10-16 19:09:00,
2013-10-16 15:10:00,74.0,59.2,29.96,SSW,207,1.0,0.0,60,0.00,,CLR,0.00,708.00,VWS V14.01,2013-10-16 19:10:00,
2013-10-16 15:14:00,74.3,59.5,29.96,SW,221,2.0,0.0,60,0.00,,CLR,0.00,,VWS V14.01,2013-10-16 19:14:00,
2013-10-16 15:15:00,74.3,59.1,29.96,SW,221,0.0,0.0,59,0.00,,CLR,0.00,413.00,VWS V14.01,2013-10-16 19:15:00,
2013-10-16 15:19:00,74.5,58.8,29.96,NW,319,0.0,0.0,58,0.00,,CLR,0.00,,VWS V14.01,2013-10-16 19:19:00,
2013-10-16 15:20:00,74.6,58.9,29.96,NW,323,0.0,0.0,58,0.00,,CLR,0.00,380.00,VWS V14.01,2013-10-16 19:20:00,
2013-10-16 15:24:00,74.8,59.0,29.96,SSE,161,1.0,0.0,58,0.00,,CLR,0.00,,VWS V14.01,2013-10-16 19:24:00,
2013-10-16 15:25:00,74.8,59.5,29.96,South,188,3.0,0.0,59,0.00,,CLR,0.00,413.00,VWS V14.01,2013-10-16 19:25:00,
2013-10-16 15:29:00,74.6,58.9,29.96,WSW,239,2.0,0.0,58,0.00,,CLR,0.00,,VWS V14.01,2013-10-16 19:29:00,
2013-10-16 15:30:00,74.6,59.8,29.96,NNW,331,3.0,0.0,60,0.00,,CLR,0.00,399.00,VWS V14.01,2013-10-16 19:30:00,
2013-10-16 15:34:00,74.7,59.4,29.96,NW,309,2.0,0.0,59,0.00,,SCT037,0.00,,VWS V14.01,2013-10-16 19:34:00,
2013-10-16 15:35:00,74.8,59.5,29.96,NW,323,3.0,0.0,59,0.00,,CLR,0.00,348.00,VWS V14.01,2013-10-16 19:35:00,
2013-10-16 15:39:00,74.8,59.5,29.96,NNW,327,2.0,0.0,59,0.00,,SCT037,0.00,,VWS V14.01,2013-10-16 19:39:00,
2013-10-16 15:40:00,74.8,59.5,29.96,NW,318,3.0,0.0,59,0.00,,CLR,0.00,322.00,VWS V14.01,2013-10-16 19:40:00,
2013-10-16 15:44:00,74.9,59.6,29.96,NW,321,2.0,0.0,59,0.00,,SCT037,0.00,,VWS V14.01,2013-10-16 19:44:00,
2013-10-16 15:45:00,75.0,59.2,29.96,North,349,1.0,0.0,58,0.00,,CLR,0.00,431.00,VWS V14.01,2013-10-16 19:45:00,
2013-10-16 15:49:00,75.0,59.2,29.96,WNW,291,1.0,0.0,58,0.00,,SCT037,0.00,,VWS V14.01,2013-10-16 19:49:00,
2013-10-16 15:50:00,75.0,60.2,29.96,West,265,3.0,0.0,60,0.00,,CLR,0.00,383.00,VWS V14.01,2013-10-16 19:50:00,
2013-10-16 15:54:00,75.4,60.6,29.96,SW,225,2.0,0.0,60,0.00,,SCT037,0.00,,VWS V14.01,2013-10-16 19:54:00,
2013-10-16 15:55:00,75.7,59.9,29.96,NE,48,1.0,0.0,58,0.00,,CLR,0.00,645.00,VWS V14.01,2013-10-16 19:55:00,
2013-10-16 15:59:00,76.1,59.3,29.97,NNW,338,3.0,0.0,56,0.00,,SCT037,0.00,,VWS V14.01,2013-10-16 19:59:00,
2013-10-16 16:00:00,76.2,58.9,29.96,NE,48,2.0,0.0,55,0.00,,CLR,0.00,575.00,VWS V14.01,2013-10-16 20:00:00,
2013-10-16 16:04:00,76.2,59.4,29.97,ENE,70,2.0,0.0,56,0.00,,SCT037,0.00,,VWS V14.01,2013-10-16 20:04:00,
2013-10-16 16:05:00,76.4,60.1,29.97,North,11,3.0,0.0,57,0.00,,CLR,0.00,564.00,VWS V14.01,2013-10-16 20:05:00,
2013-10-16 16:09:00,76.6,59.8,29.97,NNW,338,2.0,0.0,56,0.00,,SCT037,0.00,,VWS V14.01,2013-10-16 20:09:00,
2013-10-16 16:10:00,76.6,59.2,29.97,West,269,4.0,0.0,55,0.00,,CLR,0.00,404.00,VWS V14.01,2013-10-16 20:10:00,
2013-10-16 16:14:00,76.0,58.7,29.97,West,261,1.0,0.0,55,0.00,,SCT037,0.00,,VWS V14.01,2013-10-16 20:14:00,
2013-10-16 16:15:00,76.0,59.2,29.97,NW,324,0.0,0.0,56,0.00,,CLR,0.00,548.00,VWS V14.01,2013-10-16 20:15:00,
2013-10-16 16:19:00,76.1,59.8,29.96,NW,315,3.0,0.0,57,0.00,,SCT037,0.00,,VWS V14.01,2013-10-16 20:19:00,
2013-10-16 16:20:00,76.1,59.8,29.96,North,355,3.0,0.0,57,0.00,,CLR,0.00,264.00,VWS V14.01,2013-10-16 20:20:00,
2013-10-16 16:24:00,75.9,59.1,29.96,NNW,347,1.0,0.0,56,0.00,,SCT037,0.00,,VWS V14.01,2013-10-16 20:24:00,
2013-10-16 16:25:00,75.8,59.5,29.96,North,5,3.0,0.0,57,0.00,,CLR,0.00,322.00,VWS V14.01,2013-10-16 20:25:00,
2013-10-16 16:29:00,75.6,59.3,29.96,North,360,4.0,0.0,57,0.00,,SCT037,0.00,,VWS V14.01,2013-10-16 20:29:00,
2013-10-16 16:30:00,75.5,59.2,29.96,North,5,2.0,0.0,57,0.00,,CLR,0.00,281.00,VWS V14.01,2013-10-16 20:30:00,
2013-10-16 16:34:00,75.3,59.5,29.96,SW,234,4.0,0.0,58,0.00,,CLR,0.00,,VWS V14.01,2013-10-16 20:34:00,
2013-10-16 16:35:00,75.1,59.3,29.96,WNW,290,1.0,0.0,58,0.00,,CLR,0.00,244.00,VWS V14.01,2013-10-16 20:35:00,
2013-10-16 16:39:00,75.0,58.8,29.96,North,5,3.0,0.0,57,0.00,,CLR,0.00,,VWS V14.01,2013-10-16 20:39:00,
2013-10-16 16:40:00,74.8,59.0,29.96,NNE,15,1.0,0.0,58,0.00,,CLR,0.00,202.00,VWS V14.01,2013-10-16 20:40:00,
2013-10-16 16:44:00,74.6,58.9,29.96,NW,306,1.0,0.0,58,0.00,,CLR,0.00,,VWS V14.01,2013-10-16 20:44:00,
2013-10-16 16:45:00,74.6,59.3,29.96,NW,314,1.0,0.0,59,0.00,,CLR,0.00,178.00,VWS V14.01,2013-10-16 20:45:00,
2013-10-16 16:49:00,74.5,59.2,29.96,NNE,25,3.0,0.0,59,0.00,,CLR,0.00,,VWS V14.01,2013-10-16 20:49:00,
2013-10-16 16:50:00,74.4,59.6,29.96,NNW,338,1.0,0.0,60,0.00,,CLR,0.00,165.00,VWS V14.01,2013-10-16 20:50:00,
2013-10-16 16:54:00,74.2,59.0,29.96,North,10,1.0,0.0,59,0.00,,CLR,0.00,,VWS V14.01,2013-10-16 20:54:00,
2013-10-16 16:55:00,74.1,58.9,29.96,NW,323,2.0,0.0,59,0.00,,CLR,0.00,144.00,VWS V14.01,2013-10-16 20:55:00,
2013-10-16 16:59:00,73.9,59.2,29.95,WNW,303,1.0,0.0,60,0.00,,CLR,0.00,,VWS V14.01,2013-10-16 20:59:00,
2013-10-16 17:00:00,73.9,59.2,29.95,NNW,338,3.0,0.0,60,0.00,,CLR,0.00,128.00,VWS V14.01,2013-10-16 21:00:00,
2013-10-16 17:04:00,73.7,59.4,29.96,NNW,327,0.0,0.0,61,0.00,,CLR,0.00,,VWS V14.01,2013-10-16 21:04:00,
2013-10-16 17:05:00,73.6,59.3,29.96,NW,323,1.0,0.0,61,0.00,,CLR,0.00,111.00,VWS V14.01,2013-10-16 21:05:00,
2013-10-16 17:09:00,73.5,59.2,29.96,NW,326,1.0,0.0,61,0.00,,CLR,0.00,,VWS V14.01,2013-10-16 21:09:00,
2013-10-16 17:10:00,73.5,59.2,29.96,NW,326,0.0,0.0,61,0.00,,CLR,0.00,83.00,VWS V14.01,2013-10-16 21:10:00,
2013-10-16 17:14:00,73.4,59.6,29.96,North,11,1.0,0.0,62,0.00,,CLR,0.00,,VWS V14.01,2013-10-16 21:14:00,
2013-10-16 17:15:00,73.4,59.6,29.96,North,355,0.0,0.0,62,0.00,,CLR,0.00,70.00,VWS V14.01,2013-10-16 21:15:00,
2013-10-16 17:19:00,73.3,59.5,29.96,North,355,0.0,0.0,62,0.00,,CLR,0.00,,VWS V14.01,2013-10-16 21:19:00,
2013-10-16 17:20:00,73.3,60.0,29.96,North,355,1.0,0.0,63,0.00,,CLR,0.00,81.00,VWS V14.01,2013-10-16 21:20:00,
2013-10-16 17:24:00,73.2,59.4,29.96,NNW,331,1.0,0.0,62,0.00,,CLR,0.00,,VWS V14.01,2013-10-16 21:24:00,
2013-10-16 17:25:00,73.2,59.9,29.96,NNW,331,0.0,0.0,63,0.00,,CLR,0.00,86.00,VWS V14.01,2013-10-16 21:25:00,
2013-10-16 17:29:00,73.1,59.3,29.95,NNW,331,0.0,0.0,62,0.00,,CLR,0.00,,VWS V14.01,2013-10-16 21:29:00,
2013-10-16 17:30:00,73.1,59.3,29.95,NNW,331,0.0,0.0,62,0.00,,CLR,0.00,97.00,VWS V14.01,2013-10-16 21:30:00,
2013-10-16 17:34:00,73.1,60.2,29.95,NNW,331,1.0,0.0,64,0.00,,SCT041,0.00,,VWS V14.01,2013-10-16 21:34:00,
2013-10-16 17:35:00,73.2,59.9,29.95,NNW,331,1.0,0.0,63,0.00,,CLR,0.00,134.00,VWS V14.01,2013-10-16 21:35:00,
2013-10-16 17:39:00,73.3,60.0,29.95,NW,325,0.0,0.0,63,0.00,,SCT041,0.00,,VWS V14.01,2013-10-16 21:39:00,
2013-10-16 17:40:00,73.4,60.0,29.95,NW,325,1.0,0.0,63,0.00,,CLR,0.00,132.00,VWS V14.01,2013-10-16 21:40:00,
2013-10-16 17:44:00,73.5,60.2,29.95,NW,325,0.0,0.0,63,0.00,,SCT041,0.00,,VWS V14.01,2013-10-16 21:44:00,
2013-10-16 17:45:00,73.6,60.2,29.95,NW,325,0.0,0.0,63,0.00,,CLR,0.00,123.00,VWS V14.01,2013-10-16 21:45:00,
2013-10-16 17:49:00,73.7,59.9,29.95,NW,325,0.0,0.0,62,0.00,,SCT041,0.00,,VWS V14.01,2013-10-16 21:49:00,
2013-10-16 17:50:00,73.8,60.0,29.95,NW,325,1.0,0.0,62,0.00,,CLR,0.00,90.00,VWS V14.01,2013-10-16 21:50:00,
2013-10-16 17:54:00,73.7,60.8,29.95,NW,325,0.0,0.0,64,0.00,,,0.00,,VWS V14.01,2013-10-16 21:54:00,
2013-10-16 17:55:00,73.7,60.3,29.95,NW,325,1.0,0.0,63,0.00,,CLR,0.00,91.00,VWS V14.01,2013-10-16 21:55:00,
2013-10-16 17:59:00,73.6,60.2,29.95,NW,325,0.0,0.0,63,0.00,,SCT041,0.00,,VWS V14.01,2013-10-16 21:59:00,
2013-10-16 18:00:00,73.6,59.8,29.95,NW,325,0.0,0.0,62,0.00,,CLR,0.00,72.00,VWS V14.01,2013-10-16 22:00:00,
2013-10-16 18:04:00,73.6,60.2,29.95,NW,325,0.0,0.0,63,0.00,,,0.00,,VWS V14.01,2013-10-16 22:04:00,
2013-10-16 18:05:00,73.6,60.2,29.95,NW,325,0.0,0.0,63,0.00,,CLR,0.00,54.00,VWS V14.01,2013-10-16 22:05:00,
2013-10-16 18:09:00,73.6,60.7,29.95,NW,325,0.0,0.0,64,0.00,,,0.00,,VWS V14.01,2013-10-16 22:09:00,
2013-10-16 18:10:00,73.5,60.6,29.95,NW,325,0.0,0.0,64,0.00,,CLR,0.00,28.00,VWS V14.01,2013-10-16 22:10:00,
2013-10-16 18:14:00,73.2,60.7,29.95,NW,325,1.0,0.0,65,0.00,,,0.00,,VWS V14.01,2013-10-16 22:14:00,
2013-10-16 18:15:00,73.1,60.7,29.95,NW,325,1.0,0.0,65,0.00,,CLR,0.00,23.00,VWS V14.01,2013-10-16 22:15:00,
2013-10-16 18:19:00,72.6,61.0,29.95,NW,325,0.0,0.0,67,0.00,,SCT041,0.00,,VWS V14.01,2013-10-16 22:19:00,
2013-10-16 18:20:00,72.5,60.9,29.96,NW,325,0.0,0.0,67,0.00,,CLR,0.00,26.00,VWS V14.01,2013-10-16 22:20:00,
2013-10-16 18:24:00,72.1,61.4,29.96,NW,325,0.0,0.0,69,0.00,,,0.00,,VWS V14.01,2013-10-16 22:24:00,
2013-10-16 18:25:00,72.0,61.3,29.96,NW,325,0.0,0.0,69,0.00,,CLR,0.00,26.00,VWS V14.01,2013-10-16 22:25:00,
2013-10-16 18:29:00,71.6,60.9,29.96,NW,325,0.0,0.0,69,0.00,,,0.00,,VWS V14.01,2013-10-16 22:29:00,
2013-10-16 18:30:00,71.5,60.8,29.96,NW,325,0.0,0.0,69,0.00,,CLR,0.00,21.00,VWS V14.01,2013-10-16 22:30:00,
2013-10-16 18:35:00,71.2,60.9,29.95,NW,325,0.0,0.0,70,0.00,,CLR,0.00,,VWS V14.01,2013-10-16 22:35:00,
2013-10-16 18:40:00,70.7,60.5,29.96,NW,325,0.0,0.0,70,0.00,,CLR,0.00,,VWS V14.01,2013-10-16 22:40:00,
2013-10-16 18:45:00,70.2,60.0,29.96,NW,325,0.0,0.0,70,0.00,,CLR,0.00,,VWS V14.01,2013-10-16 22:45:00,
2013-10-16 18:50:00,69.8,60.0,29.96,NW,325,0.0,0.0,71,0.00,,CLR,0.00,,VWS V14.01,2013-10-16 22:50:00,
2013-10-16 18:55:00,69.3,60.7,29.96,NW,325,1.0,0.0,74,0.00,,CLR,0.00,,VWS V14.01,2013-10-16 22:55:00,
2013-10-16 19:00:00,68.7,60.8,29.97,NW,325,0.0,0.0,76,0.00,,CLR,0.00,,VWS V14.01,2013-10-16 23:00:00,
2013-10-16 19:05:00,68.2,60.7,29.97,NW,325,0.0,0.0,77,0.00,,CLR,0.00,,VWS V14.01,2013-10-16 23:05:00,
2013-10-16 19:10:00,67.6,60.9,29.97,NW,325,0.0,0.0,79,0.00,,CLR,0.00,,VWS V14.01,2013-10-16 23:10:00,
2013-10-16 19:15:00,67.1,60.7,29.97,NW,325,0.0,0.0,80,0.00,,CLR,0.00,,VWS V14.01,2013-10-16 23:15:00,
2013-10-16 19:20:00,66.7,60.3,29.97,NW,325,0.0,0.0,80,0.00,,CLR,0.00,,VWS V14.01,2013-10-16 23:20:00,
2013-10-16 19:25:00,66.3,60.0,29.97,NW,325,0.0,0.0,80,0.00,,CLR,0.00,,VWS V14.01,2013-10-16 23:25:00,
2013-10-16 19:30:00,65.8,59.5,29.97,NW,325,0.0,0.0,80,0.00,,CLR,0.00,,VWS V14.01,2013-10-16 23:30:00,
2013-10-16 19:35:00,65.5,59.9,29.98,NW,325,0.0,0.0,82,0.00,,CLR,0.00,,VWS V14.01,2013-10-16 23:35:00,
2013-10-16 19:40:00,65.1,60.2,29.98,NW,325,0.0,0.0,84,0.00,,CLR,0.00,,VWS V14.01,2013-10-16 23:40:00,
2013-10-16 19:45:00,64.7,60.1,29.98,NW,325,0.0,0.0,85,0.00,,CLR,0.00,,VWS V14.01,2013-10-16 23:45:00,
2013-10-16 19:50:00,64.4,60.1,29.98,NW,325,1.0,0.0,86,0.00,,CLR,0.00,,VWS V14.01,2013-10-16 23:50:00,
2013-10-16 19:55:00,64.0,59.7,29.98,NW,325,0.0,0.0,86,0.00,,CLR,0.00,,VWS V14.01,2013-10-16 23:55:00,
2013-10-16 20:00:00,63.8,59.9,29.98,NW,325,0.0,0.0,87,0.00,,CLR,0.00,,VWS V14.01,2013-10-17 00:00:00,
2013-10-16 20:05:00,63.5,59.6,29.98,NW,325,1.0,0.0,87,0.00,,CLR,0.00,,VWS V14.01,2013-10-17 00:05:00,
2013-10-16 20:10:00,63.3,59.0,29.97,NW,325,0.0,0.0,86,0.00,,BKN055,0.00,,VWS V14.01,2013-10-17 00:10:00,
2013-10-16 20:15:00,63.5,59.6,29.97,NW,325,0.0,0.0,87,0.00,,BKN055,0.00,,VWS V14.01,2013-10-17 00:15:00,
2013-10-16 20:20:00,63.5,59.6,29.97,NW,325,0.0,0.0,87,0.00,,BKN055,0.00,,VWS V14.01,2013-10-17 00:20:00,
2013-10-16 20:25:00,63.5,59.2,29.97,NW,325,0.0,0.0,86,0.00,,BKN055,0.00,,VWS V14.01,2013-10-17 00:25:00,
2013-10-16 20:30:00,63.5,59.2,29.97,NW,325,0.0,0.0,86,0.00,,BKN055,0.00,,VWS V14.01,2013-10-17 00:30:00,
2013-10-16 20:35:00,63.4,59.2,29.97,NW,325,0.0,0.0,86,0.00,,BKN055,0.00,,VWS V14.01,2013-10-17 00:35:00,
2013-10-16 20:40:00,63.4,59.5,29.97,SW,223,1.0,0.0,87,0.00,,BKN055,0.00,,VWS V14.01,2013-10-17 00:40:00,
2013-10-16 20:45:00,63.4,59.8,29.97,SW,223,0.0,0.0,88,0.00,,BKN055,0.00,,VWS V14.01,2013-10-17 00:45:00,
2013-10-16 20:50:00,63.2,59.3,29.97,SW,223,0.0,0.0,87,0.00,,BKN055,0.00,,VWS V14.01,2013-10-17 00:50:00,
2013-10-16 20:55:00,63.2,59.6,29.97,SW,223,0.0,0.0,88,0.00,,BKN055,0.00,,VWS V14.01,2013-10-17 00:55:00,
2013-10-16 21:00:00,63.2,59.6,29.97,SW,223,0.0,0.0,88,0.00,,BKN055,0.00,,VWS V14.01,2013-10-17 01:00:00,
2013-10-16 21:05:00,63.2,59.6,29.97,SW,223,0.0,0.0,88,0.00,,BKN055,0.00,,VWS V14.01,2013-10-17 01:05:00,
2013-10-16 21:11:00,63.2,59.9,29.98,SW,223,0.0,0.0,89,0.00,,BKN055,0.00,,VWS V14.01,2013-10-17 01:11:00,
2013-10-16 21:15:00,63.2,59.9,29.98,SW,223,0.0,0.0,89,0.00,,CLR,0.00,0.00,VWS V14.01,2013-10-17 01:15:00,
2013-10-16 21:16:00,63.2,59.9,29.98,SW,223,0.0,0.0,89,0.00,,BKN055,0.00,,VWS V14.01,2013-10-17 01:16:00,
2013-10-16 21:20:00,63.1,59.8,29.98,SW,223,0.0,0.0,89,0.00,,CLR,0.00,0.00,VWS V14.01,2013-10-17 01:20:00,
2013-10-16 21:21:00,63.1,59.8,29.98,SW,223,0.0,0.0,89,0.00,,BKN055,0.00,,VWS V14.01,2013-10-17 01:21:00,
2013-10-16 21:25:00,63.0,59.7,29.98,SW,223,0.0,0.0,89,0.00,,CLR,0.00,0.00,VWS V14.01,2013-10-17 01:25:00,
2013-10-16 21:26:00,63.0,59.7,29.98,SW,223,0.0,0.0,89,0.00,,BKN055,0.00,,VWS V14.01,2013-10-17 01:26:00,
2013-10-16 21:30:00,62.8,59.5,29.98,SW,223,0.0,0.0,89,0.00,,CLR,0.00,0.00,VWS V14.01,2013-10-17 01:30:00,
2013-10-16 21:31:00,62.8,59.5,29.98,SW,223,0.0,0.0,89,0.00,,BKN055,0.00,,VWS V14.01,2013-10-17 01:31:00,
2013-10-16 21:35:00,62.7,59.4,29.98,SW,223,0.0,0.0,89,0.00,,CLR,0.00,0.00,VWS V14.01,2013-10-17 01:35:00,
2013-10-16 21:36:00,62.7,59.4,29.98,SW,223,0.0,0.0,89,0.00,,CLR,0.00,,VWS V14.01,2013-10-17 01:36:00,
2013-10-16 21:40:00,62.5,59.2,29.98,SW,223,0.0,0.0,89,0.00,,CLR,0.00,0.00,VWS V14.01,2013-10-17 01:40:00,
2013-10-16 21:41:00,62.5,59.2,29.98,SW,223,0.0,0.0,89,0.00,,CLR,0.00,,VWS V14.01,2013-10-17 01:41:00,
2013-10-16 21:45:00,62.3,59.3,29.98,SW,223,0.0,0.0,90,0.00,,CLR,0.00,0.00,VWS V14.01,2013-10-17 01:45:00,
2013-10-16 21:46:00,62.3,59.3,29.98,SW,223,0.0,0.0,90,0.00,,CLR,0.00,,VWS V14.01,2013-10-17 01:46:00,
2013-10-16 21:50:00,62.2,58.9,29.98,SW,223,0.0,0.0,89,0.00,,CLR,0.00,0.00,VWS V14.01,2013-10-17 01:50:00,
2013-10-16 21:51:00,62.2,58.9,29.98,SW,223,0.0,0.0,89,0.00,,CLR,0.00,,VWS V14.01,2013-10-17 01:51:00,
2013-10-16 21:55:00,62.2,58.9,29.98,SW,223,0.0,0.0,89,0.00,,CLR,0.00,0.00,VWS V14.01,2013-10-17 01:55:00,
2013-10-16 21:56:00,62.2,58.9,29.98,SW,223,0.0,0.0,89,0.00,,CLR,0.00,,VWS V14.01,2013-10-17 01:56:00,
2013-10-16 22:00:00,62.0,59.0,29.98,SW,223,0.0,0.0,90,0.00,,CLR,0.00,0.00,VWS V14.01,2013-10-17 02:00:00,
2013-10-16 22:01:00,62.0,59.0,29.98,SW,223,0.0,0.0,90,0.00,,CLR,0.00,,VWS V14.01,2013-10-17 02:01:00,
2013-10-16 22:05:00,61.9,58.9,29.98,SW,223,0.0,0.0,90,0.00,,CLR,0.00,0.00,VWS V14.01,2013-10-17 02:05:00,
2013-10-16 22:06:00,61.9,58.9,29.98,SW,223,0.0,0.0,90,0.00,,CLR,0.00,,VWS V14.01,2013-10-17 02:06:00,
2013-10-16 22:10:00,61.8,59.2,29.98,SW,223,0.0,0.0,91,0.00,,CLR,0.00,0.00,VWS V14.01,2013-10-17 02:10:00,
2013-10-16 22:11:00,61.8,59.2,29.98,SW,223,0.0,0.0,91,0.00,,CLR,0.00,,VWS V14.01,2013-10-17 02:11:00,
2013-10-16 22:15:00,61.7,59.0,29.98,SW,223,0.0,0.0,91,0.00,,CLR,0.00,0.00,VWS V14.01,2013-10-17 02:15:00,
2013-10-16 22:16:00,61.7,59.0,29.98,SW,223,0.0,0.0,91,0.00,,CLR,0.00,,VWS V14.01,2013-10-17 02:16:00,
2013-10-16 22:20:00,61.6,59.0,29.98,SW,223,0.0,0.0,91,0.00,,CLR,0.00,0.00,VWS V14.01,2013-10-17 02:20:00,
2013-10-16 22:21:00,61.6,59.0,29.98,SW,223,0.0,0.0,91,0.00,,CLR,0.00,,VWS V14.01,2013-10-17 02:21:00,
2013-10-16 22:25:00,61.4,58.8,29.98,SW,223,0.0,0.0,91,0.00,,CLR,0.00,0.00,VWS V14.01,2013-10-17 02:25:00,
2013-10-16 22:26:00,61.4,58.8,29.98,SW,223,0.0,0.0,91,0.00,,CLR,0.00,,VWS V14.01,2013-10-17 02:26:00,
2013-10-16 22:30:00,61.3,58.7,29.98,SW,223,0.0,0.0,91,0.00,,CLR,0.00,0.00,VWS V14.01,2013-10-17 02:30:00,
2013-10-16 22:31:00,61.3,58.7,29.98,SW,223,0.0,0.0,91,0.00,,FEW050,0.00,,VWS V14.01,2013-10-17 02:31:00,
2013-10-16 22:35:00,61.3,59.0,29.98,SW,223,0.0,0.0,92,0.00,,CLR,0.00,0.00,VWS V14.01,2013-10-17 02:35:00,
2013-10-16 22:36:00,61.3,59.0,29.98,SW,223,0.0,0.0,92,0.00,,FEW050,0.00,,VWS V14.01,2013-10-17 02:36:00,
2013-10-16 22:40:00,61.3,59.0,29.98,SW,223,0.0,0.0,92,0.00,,CLR,0.00,0.00,VWS V14.01,2013-10-17 02:40:00,
2013-10-16 22:41:00,61.3,59.0,29.98,SW,223,0.0,0.0,92,0.00,,FEW050,0.00,,VWS V14.01,2013-10-17 02:41:00,
2013-10-16 22:45:00,61.3,59.0,29.98,SW,223,0.0,0.0,92,0.00,,CLR,0.00,0.00,VWS V14.01,2013-10-17 02:45:00,
2013-10-16 22:46:00,61.3,59.0,29.98,SW,223,0.0,0.0,92,0.00,,FEW050,0.00,,VWS V14.01,2013-10-17 02:46:00,
2013-10-16 22:50:00,61.4,59.1,29.98,SW,223,0.0,0.0,92,0.00,,CLR,0.00,0.00,VWS V14.01,2013-10-17 02:50:00,
2013-10-16 22:51:00,61.4,59.1,29.98,SW,223,0.0,0.0,92,0.00,,FEW050,0.00,,VWS V14.01,2013-10-17 02:51:00,
2013-10-16 22:55:00,61.6,59.3,29.98,SW,223,0.0,0.0,92,0.00,,CLR,0.00,0.00,VWS V14.01,2013-10-17 02:55:00,
2013-10-16 22:56:00,61.5,59.2,29.98,SW,223,0.0,0.0,92,0.00,,FEW050,0.00,,VWS V14.01,2013-10-17 02:56:00,
2013-10-16 23:00:00,61.5,58.5,29.98,SW,223,0.0,0.0,90,0.00,,CLR,0.00,0.00,VWS V14.01,2013-10-17 03:00:00,
2013-10-16 23:01:00,61.5,58.5,29.98,SW,223,0.0,0.0,90,0.00,,FEW050,0.00,,VWS V14.01,2013-10-17 03:01:00,
2013-10-16 23:05:00,61.4,58.5,29.98,SW,223,0.0,0.0,90,0.00,,CLR,0.00,0.00,VWS V14.01,2013-10-17 03:05:00,
2013-10-16 23:06:00,61.4,58.8,29.98,SW,223,0.0,0.0,91,0.00,,FEW050,0.00,,VWS V14.01,2013-10-17 03:06:00,
2013-10-16 23:10:00,61.3,58.7,29.98,SW,223,0.0,0.0,91,0.00,,CLR,0.00,0.00,VWS V14.01,2013-10-17 03:10:00,
2013-10-16 23:11:00,61.3,58.7,29.98,SW,223,0.0,0.0,91,0.00,,FEW050,0.00,,VWS V14.01,2013-10-17 03:11:00,
2013-10-16 23:15:00,61.2,58.6,29.98,SW,223,0.0,0.0,91,0.00,,CLR,0.00,0.00,VWS V14.01,2013-10-17 03:15:00,
2013-10-16 23:16:00,61.2,58.6,29.98,SW,223,0.0,0.0,91,0.00,,FEW050,0.00,,VWS V14.01,2013-10-17 03:16:00,
2013-10-16 23:20:00,61.1,58.8,29.99,SW,223,0.0,0.0,92,0.00,,CLR,0.00,0.00,VWS V14.01,2013-10-17 03:20:00,
2013-10-16 23:21:00,61.1,58.8,29.98,SW,223,0.0,0.0,92,0.00,,FEW050,0.00,,VWS V14.01,2013-10-17 03:21:00,
2013-10-16 23:25:00,61.0,58.7,29.98,SW,223,0.0,0.0,92,0.00,,CLR,0.00,0.00,VWS V14.01,2013-10-17 03:25:00,
2013-10-16 23:27:00,61.0,58.7,29.98,SW,223,0.0,0.0,92,0.00,,FEW050,0.00,,VWS V14.01,2013-10-17 03:27:00,
2013-10-16 23:30:00,61.0,58.7,29.99,SW,223,0.0,0.0,92,0.00,,CLR,0.00,0.00,VWS V14.01,2013-10-17 03:30:00,
2013-10-16 23:32:00,61.0,58.7,29.98,SW,223,0.0,0.0,92,0.00,,BKN046,0.00,,VWS V14.01,2013-10-17 03:32:00,
2013-10-16 23:35:00,61.1,59.1,29.99,South,180,1.0,0.0,93,0.00,,CLR,0.00,0.00,VWS V14.01,2013-10-17 03:35:00,
2013-10-16 23:37:00,61.1,58.8,29.99,SE,126,2.0,0.0,92,0.00,,BKN046,0.00,,VWS V14.01,2013-10-17 03:37:00,
2013-10-16 23:40:00,61.2,58.9,29.98,ESE,113,1.0,0.0,92,0.00,,CLR,0.00,0.00,VWS V14.01,2013-10-17 03:40:00,
2013-10-16 23:42:00,61.2,58.9,29.98,ESE,109,2.0,0.0,92,0.00,,BKN046,0.00,,VWS V14.01,2013-10-17 03:42:00,
2013-10-16 23:45:00,61.3,59.0,29.98,ESE,117,2.0,0.0,92,0.00,,CLR,0.00,0.00,VWS V14.01,2013-10-17 03:45:00,
2013-10-16 23:47:00,61.3,59.0,29.98,ESE,117,1.0,0.0,92,0.00,,BKN046,0.00,,VWS V14.01,2013-10-17 03:47:00,
2013-10-16 23:50:00,61.4,59.1,29.98,SE,136,2.0,0.0,92,0.00,,CLR,0.00,0.00,VWS V14.01,2013-10-17 03:50:00,
2013-10-16 23:52:00,61.5,59.2,29.98,SE,136,2.0,0.0,92,0.00,,BKN046,0.00,,VWS V14.01,2013-10-17 03:52:00,
2013-10-16 23:55:00,61.6,59.0,29.98,SE,136,1.0,0.0,91,0.00,,CLR,0.00,0.00,VWS V14.01,2013-10-17 03:55:00,
2013-10-16 23:57:00,61.6,59.0,29.98,SE,133,1.0,0.0,91,0.00,,BKN046,0.00,,VWS V14.01,2013-10-17 03:57:00,